This is the latest recevied weather packets stored in our database for station/object W7MB. If no packets are shown the sender has not sent any weather packets the latest 10 day(s).
| Time | Temp. | Humidity | Pressure | Rain* | Wind** | Luminosity | Snow |
|---|---|---|---|---|---|---|---|
| 1777916523 | 22.78° C | 43% | 1009.7 hPa | 0 mm | - | - | - |
| 1777916163 | 22.22° C | 42% | 1009.8 hPa | 0 mm | - | - | - |
| 1777915803 | 21.67° C | 43% | 1009.8 hPa | 0 mm | - | - | - |
| 1777915444 | 21.11° C | 46% | 1009.9 hPa | 0 mm | - | - | - |
| 1777915083 | 20.56° C | 51% | 1009.8 hPa | 0 mm | - | - | - |
| 1777914723 | 20° C | 48% | 1009.9 hPa | 0 mm | - | - | - |
| 1777914363 | 20° C | 48% | 1009.9 hPa | 0 mm | - | - | - |
| 1777914003 | 19.44° C | 56% | 1009.9 hPa | 0 mm | - | - | - |
| 1777913643 | 18.89° C | 59% | 1009.9 hPa | 0 mm | - | - | - |
| 1777913284 | 18.33° C | 57% | 1009.9 hPa | 0 mm | - | - | - |
| 1777912923 | 17.78° C | 56% | 1009.9 hPa | 0 mm | - | - | - |
| 1777912564 | 17.22° C | 64% | 1009.9 hPa | 0 mm | - | - | - |
| 1777912204 | 16.67° C | 60% | 1009.9 hPa | 0 mm | - | - | - |
| 1777911843 | 16.11° C | 64% | 1010.1 hPa | 0 mm | - | - | - |
| 1777911483 | 15.56° C | 69% | 1010.1 hPa | 0 mm | - | - | - |
| 1777911123 | 15° C | 70% | 1010.2 hPa | 0 mm | - | - | - |
| 1777910763 | 14.44° C | 73% | 1010.2 hPa | 0 mm | - | - | - |
| 1777910403 | 13.33° C | 75% | 1010.2 hPa | 0 mm | - | - | - |
| 1777910043 | 13.33° C | 80% | 1010.3 hPa | 0 mm | - | - | - |
| 1777909683 | 12.22° C | 78% | 1010.4 hPa | 0 mm | - | - | - |
| 1777909323 | 12.22° C | 81% | 1010.5 hPa | 0 mm | - | - | - |
| 1777908963 | 11.67° C | 81% | 1010.6 hPa | 0 mm | - | - | - |
| 1777908603 | 11.11° C | 81% | 1010.6 hPa | 0 mm | - | - | - |
| 1777908243 | 10.56° C | 80% | 1010.7 hPa | 0 mm | - | - | - |
| 1777907883 | 10° C | 80% | 1010.8 hPa | 0 mm | - | - | - |
* Rain latest hour (hover to see other rain measurements)
** Current wind speed in m/s (hover to see current wind gust speed)